Year,Month,Day,Hour,Minute,Value (Times are PST for windgust in km/hr)
2020,11,30,00,00,3.20
2020,11,30,00,01,1.60
2020,11,30,00,02,1.60
2020,11,30,00,03,1.60
2020,11,30,00,04,1.60
2020,11,30,00,06,1.60
2020,11,30,00,07,1.60
2020,11,30,00,08,1.60
2020,11,30,00,09,1.60
2020,11,30,00,10,3.20
2020,11,30,00,11,3.20
2020,11,30,00,12,1.60
2020,11,30,00,13,1.60
2020,11,30,00,14,1.60
2020,11,30,00,21,4.80
2020,11,30,00,22,3.20
2020,11,30,00,23,1.60
2020,11,30,00,24,1.60
2020,11,30,00,25,1.60
2020,11,30,00,26,3.20
2020,11,30,00,27,3.20
2020,11,30,00,28,1.60
2020,11,30,00,29,3.20
2020,11,30,00,31,1.60
2020,11,30,00,33,3.20
2020,11,30,00,34,1.60
2020,11,30,00,35,1.60
2020,11,30,00,36,1.60
2020,11,30,00,37,1.60
2020,11,30,00,38,1.60
2020,11,30,00,39,1.60
2020,11,30,00,40,1.60
2020,11,30,00,41,1.60
2020,11,30,00,42,3.20
2020,11,30,00,43,1.60
2020,11,30,00,44,1.60
2020,11,30,00,46,1.60
2020,11,30,00,47,3.20
2020,11,30,00,48,3.20
2020,11,30,00,49,3.20
2020,11,30,00,50,1.60
2020,11,30,00,51,4.80
2020,11,30,00,52,4.80
2020,11,30,00,53,1.60
2020,11,30,00,54,1.60
2020,11,30,00,55,1.60
2020,11,30,00,56,1.60
2020,11,30,00,57,3.20
2020,11,30,00,58,3.20
2020,11,30,00,59,3.20
2020,11,30,01,00,3.20
2020,11,30,01,01,3.20
2020,11,30,01,02,1.60
2020,11,30,01,03,3.20
2020,11,30,01,04,1.60
2020,11,30,01,05,1.60
2020,11,30,01,06,3.20
2020,11,30,01,07,1.60
2020,11,30,01,08,1.60
2020,11,30,01,09,1.60
2020,11,30,01,10,1.60
2020,11,30,01,11,1.60
2020,11,30,01,12,3.20
2020,11,30,01,13,1.60
2020,11,30,01,14,3.20
2020,11,30,01,15,3.20
2020,11,30,01,16,4.80
2020,11,30,01,17,3.20
2020,11,30,01,18,6.40
2020,11,30,01,19,3.20
2020,11,30,01,20,3.20
2020,11,30,01,21,6.40
2020,11,30,01,22,8.10
2020,11,30,01,23,8.10
2020,11,30,01,24,9.60
2020,11,30,01,25,8.10
2020,11,30,01,26,6.40
2020,11,30,01,27,6.40
2020,11,30,01,28,9.60
2020,11,30,01,29,8.10
2020,11,30,01,30,4.80
2020,11,30,01,31,4.80
2020,11,30,01,32,4.80
2020,11,30,01,33,8.10
2020,11,30,01,34,8.10
2020,11,30,01,35,9.60
2020,11,30,01,36,12.90
2020,11,30,01,37,12.90
2020,11,30,01,38,12.90
2020,11,30,01,39,12.90
2020,11,30,01,40,9.60
2020,11,30,01,41,8.10
2020,11,30,01,42,11.30
2020,11,30,01,43,9.60
2020,11,30,01,44,11.30
2020,11,30,01,45,12.90
2020,11,30,01,46,14.50
2020,11,30,01,47,8.10
2020,11,30,01,48,11.30
2020,11,30,01,49,14.50
2020,11,30,01,50,6.40
2020,11,30,01,51,6.40
2020,11,30,01,52,3.20
2020,11,30,01,53,4.80
2020,11,30,01,54,3.20
2020,11,30,01,55,11.30
2020,11,30,01,56,8.10
2020,11,30,01,57,4.80
2020,11,30,01,58,9.60
2020,11,30,01,59,6.40
2020,11,30,02,00,9.60
2020,11,30,02,01,6.40
2020,11,30,02,02,8.10
2020,11,30,02,03,3.20
2020,11,30,02,04,3.20
2020,11,30,02,05,6.40
2020,11,30,02,06,3.20
2020,11,30,02,07,4.80
2020,11,30,02,08,4.80
2020,11,30,02,09,1.60
2020,11,30,02,10,4.80
2020,11,30,02,11,4.80
2020,11,30,02,12,4.80
2020,11,30,02,13,4.80
2020,11,30,02,14,4.80
2020,11,30,02,15,4.80
2020,11,30,02,16,4.80
2020,11,30,02,17,4.80
2020,11,30,02,18,4.80
2020,11,30,02,19,4.80
2020,11,30,02,20,4.80
2020,11,30,02,21,4.80
2020,11,30,02,22,8.10
2020,11,30,02,23,4.80
2020,11,30,02,24,4.80
2020,11,30,02,25,4.80
2020,11,30,02,26,8.10
2020,11,30,02,27,4.80
2020,11,30,02,28,4.80
2020,11,30,02,29,4.80
2020,11,30,02,30,3.20
2020,11,30,02,31,6.40
2020,11,30,02,32,3.20
2020,11,30,02,33,3.20
2020,11,30,02,34,1.60
2020,11,30,02,35,3.20
2020,11,30,02,36,4.80
2020,11,30,02,37,3.20
2020,11,30,02,38,3.20
2020,11,30,02,39,3.20
2020,11,30,02,40,3.20
2020,11,30,02,41,3.20
2020,11,30,02,42,4.80
2020,11,30,02,43,4.80
2020,11,30,02,44,4.80
2020,11,30,02,45,3.20
2020,11,30,02,46,4.80
2020,11,30,02,47,4.80
2020,11,30,02,48,4.80
2020,11,30,02,49,4.80
2020,11,30,02,50,4.80
2020,11,30,02,51,4.80
2020,11,30,02,52,3.20
2020,11,30,02,53,1.60
2020,11,30,02,54,1.60
2020,11,30,02,55,1.60
2020,11,30,03,02,1.60
2020,11,30,03,03,1.60
2020,11,30,03,04,1.60
2020,11,30,03,05,1.60
2020,11,30,03,06,1.60
2020,11,30,03,07,1.60
2020,11,30,03,08,1.60
2020,11,30,03,11,1.60
2020,11,30,03,12,6.40
2020,11,30,03,13,6.40
2020,11,30,03,14,3.20
2020,11,30,03,15,3.20
2020,11,30,03,16,3.20
2020,11,30,03,17,3.20
2020,11,30,03,18,3.20
2020,11,30,03,19,3.20
2020,11,30,03,20,3.20
2020,11,30,03,21,3.20
2020,11,30,03,22,3.20
2020,11,30,03,23,9.60
2020,11,30,03,24,4.80
2020,11,30,03,25,4.80
2020,11,30,03,26,3.20
2020,11,30,03,27,3.20
2020,11,30,03,28,3.20
2020,11,30,03,29,3.20
2020,11,30,03,30,4.80
2020,11,30,03,31,4.80
2020,11,30,03,32,3.20
2020,11,30,03,33,3.20
2020,11,30,03,34,3.20
2020,11,30,03,35,3.20
2020,11,30,03,36,1.60
2020,11,30,03,37,3.20
2020,11,30,03,38,1.60
2020,11,30,03,41,1.60
2020,11,30,03,42,1.60
2020,11,30,03,43,1.60
2020,11,30,03,44,3.20
2020,11,30,03,45,1.60
2020,11,30,03,46,1.60
2020,11,30,03,55,1.60
2020,11,30,03,56,1.60
2020,11,30,03,57,4.80
2020,11,30,03,58,4.80
2020,11,30,03,59,4.80
2020,11,30,04,00,1.60
2020,11,30,04,01,3.20
2020,11,30,04,02,3.20
2020,11,30,04,03,1.60
2020,11,30,04,04,1.60
2020,11,30,04,05,3.20
2020,11,30,04,06,1.60
2020,11,30,04,07,3.20
2020,11,30,04,08,3.20
2020,11,30,04,09,3.20
2020,11,30,04,10,3.20
2020,11,30,04,11,3.20
2020,11,30,04,12,3.20
2020,11,30,04,13,4.80
2020,11,30,04,14,6.40
2020,11,30,04,15,4.80
2020,11,30,04,16,1.60
2020,11,30,04,17,1.60
2020,11,30,04,18,1.60
2020,11,30,04,19,6.40
2020,11,30,04,20,4.80
2020,11,30,04,25,1.60
2020,11,30,04,26,1.60
2020,11,30,04,27,1.60
2020,11,30,04,28,3.20
2020,11,30,04,30,6.40
2020,11,30,04,31,4.80
2020,11,30,04,32,4.80
2020,11,30,04,33,6.40
2020,11,30,04,34,8.10
2020,11,30,04,35,4.80
2020,11,30,04,36,8.10
2020,11,30,04,37,6.40
2020,11,30,04,38,8.10
2020,11,30,04,39,6.40
2020,11,30,04,40,8.10
2020,11,30,04,41,9.60
2020,11,30,04,42,8.10
2020,11,30,04,43,6.40
2020,11,30,04,44,8.10
2020,11,30,04,45,12.90
2020,11,30,04,46,8.10
2020,11,30,04,47,4.80
2020,11,30,04,48,11.30
2020,11,30,04,49,4.80
2020,11,30,04,50,3.20
2020,11,30,04,51,4.80
2020,11,30,04,52,3.20
2020,11,30,04,53,4.80
2020,11,30,04,54,8.10
2020,11,30,04,55,8.10
2020,11,30,04,56,11.30
2020,11,30,04,57,6.40
2020,11,30,04,58,3.20
2020,11,30,04,59,9.60
2020,11,30,05,00,8.10
2020,11,30,05,01,11.30
2020,11,30,05,02,8.10
2020,11,30,05,03,6.40
2020,11,30,05,04,6.40
2020,11,30,05,05,8.10
2020,11,30,05,06,4.80
2020,11,30,05,07,8.10
2020,11,30,05,08,3.20
2020,11,30,05,09,3.20
2020,11,30,05,10,4.80
2020,11,30,05,13,3.20
2020,11,30,05,14,11.30
2020,11,30,05,15,4.80
2020,11,30,05,16,11.30
2020,11,30,05,17,8.10
2020,11,30,05,18,3.20
2020,11,30,05,19,4.80
2020,11,30,05,20,9.60
2020,11,30,05,21,4.80
2020,11,30,05,22,4.80
2020,11,30,05,23,8.10
2020,11,30,05,24,6.40
2020,11,30,05,25,1.60
2020,11,30,05,26,11.30
2020,11,30,05,27,14.50
2020,11,30,05,28,6.40
2020,11,30,05,29,14.50
2020,11,30,05,30,4.80
2020,11,30,05,31,3.20
2020,11,30,05,32,6.40
2020,11,30,05,33,8.10
2020,11,30,05,34,9.60
2020,11,30,05,35,4.80
2020,11,30,05,36,3.20
2020,11,30,05,37,1.60
2020,11,30,05,38,3.20
2020,11,30,05,39,4.80
2020,11,30,05,40,4.80
2020,11,30,05,41,3.20
2020,11,30,05,42,4.80
2020,11,30,05,43,1.60
2020,11,30,05,44,4.80
2020,11,30,05,45,1.60
2020,11,30,05,46,1.60
2020,11,30,05,47,6.40
2020,11,30,05,48,6.40
2020,11,30,05,49,6.40
2020,11,30,05,50,6.40
2020,11,30,05,51,6.40
2020,11,30,05,52,4.80
2020,11,30,05,53,4.80
2020,11,30,05,54,1.60
2020,11,30,05,55,4.80
2020,11,30,05,56,1.60
2020,11,30,05,57,1.60
2020,11,30,05,58,1.60
2020,11,30,05,59,3.20
2020,11,30,06,00,11.30
2020,11,30,06,01,9.60
2020,11,30,06,02,8.10
2020,11,30,06,03,4.80
2020,11,30,06,04,3.20
2020,11,30,06,05,1.60
2020,11,30,06,06,3.20
2020,11,30,06,07,19.30
2020,11,30,06,08,17.70
2020,11,30,06,09,19.30
2020,11,30,06,10,6.40
2020,11,30,06,11,4.80
2020,11,30,06,12,6.40
2020,11,30,06,13,8.10
2020,11,30,06,14,1.60
2020,11,30,06,15,3.20
2020,11,30,06,16,4.80
2020,11,30,06,17,8.10
2020,11,30,06,18,4.80
2020,11,30,06,19,6.40
2020,11,30,06,20,8.10
2020,11,30,06,21,6.40
2020,11,30,06,22,1.60
2020,11,30,06,24,9.60
2020,11,30,06,25,4.80
2020,11,30,06,26,6.40
2020,11,30,06,27,3.20
2020,11,30,06,28,9.60
2020,11,30,06,29,12.90
2020,11,30,06,30,11.30
2020,11,30,06,31,4.80
2020,11,30,06,32,12.90
2020,11,30,06,33,19.30
2020,11,30,06,34,8.10
2020,11,30,06,35,8.10
2020,11,30,06,36,9.60
2020,11,30,06,37,14.50
2020,11,30,06,38,11.30
2020,11,30,06,39,22.50
2020,11,30,06,40,19.30
2020,11,30,06,41,24.20
2020,11,30,06,42,17.70
2020,11,30,06,43,16.10
2020,11,30,06,44,22.50
2020,11,30,06,45,19.30
2020,11,30,06,46,16.10
2020,11,30,06,47,25.70
2020,11,30,06,48,17.70
2020,11,30,06,49,24.20
2020,11,30,06,50,16.10
2020,11,30,06,51,17.70
2020,11,30,06,52,16.10
2020,11,30,06,53,19.30
2020,11,30,06,54,16.10
2020,11,30,06,55,19.30
2020,11,30,06,56,20.90
2020,11,30,06,57,24.20
2020,11,30,06,58,24.20
2020,11,30,06,59,30.60
2020,11,30,07,00,22.50
2020,11,30,07,01,25.70
2020,11,30,07,02,27.40
2020,11,30,07,03,24.20
2020,11,30,07,04,29.00
2020,11,30,07,05,24.20
2020,11,30,07,06,32.20
2020,11,30,07,07,29.00
2020,11,30,07,08,25.70
2020,11,30,07,09,38.60
2020,11,30,07,10,32.20
2020,11,30,07,11,27.40
2020,11,30,07,12,29.00
2020,11,30,07,13,30.60
2020,11,30,07,14,24.20
2020,11,30,07,15,24.20
2020,11,30,07,16,17.70
2020,11,30,07,17,20.90
2020,11,30,07,18,27.40
2020,11,30,07,19,27.40
2020,11,30,07,20,24.20
2020,11,30,07,21,27.40
2020,11,30,07,22,33.80
2020,11,30,07,23,25.70
2020,11,30,07,24,30.60
2020,11,30,07,25,33.80
2020,11,30,07,26,25.70
2020,11,30,07,27,30.60
2020,11,30,07,28,29.00
2020,11,30,07,29,32.20
2020,11,30,07,30,32.20
2020,11,30,07,31,27.40
2020,11,30,07,32,25.70
2020,11,30,07,33,32.20
2020,11,30,07,34,41.80
2020,11,30,07,35,19.30
2020,11,30,07,36,32.20
2020,11,30,07,37,20.90
2020,11,30,07,38,25.70
2020,11,30,07,39,25.70
2020,11,30,07,40,33.80
2020,11,30,07,41,30.60
2020,11,30,07,42,33.80
2020,11,30,07,43,35.40
2020,11,30,07,44,40.20
2020,11,30,07,45,33.80
2020,11,30,07,46,40.20
2020,11,30,07,47,32.20
2020,11,30,07,48,32.20
2020,11,30,07,49,30.60
2020,11,30,07,50,32.20
2020,11,30,07,51,30.60
2020,11,30,07,52,29.00
2020,11,30,07,53,30.60
2020,11,30,07,54,29.00
2020,11,30,07,55,33.80
2020,11,30,07,56,30.60
2020,11,30,07,57,24.20
2020,11,30,07,58,29.00
2020,11,30,07,59,29.00
2020,11,30,08,00,40.20
2020,11,30,08,01,37.00
2020,11,30,08,02,41.80
2020,11,30,08,03,40.20
2020,11,30,08,04,48.30
2020,11,30,08,05,53.10
2020,11,30,08,06,24.20
2020,11,30,08,07,41.80
2020,11,30,08,08,45.10
2020,11,30,08,09,46.70
2020,11,30,08,10,45.10
2020,11,30,08,11,48.30
2020,11,30,08,12,57.90
2020,11,30,08,13,48.30
2020,11,30,08,14,49.90
2020,11,30,08,15,51.50
2020,11,30,08,16,41.80
2020,11,30,08,17,45.10
2020,11,30,08,18,37.00
2020,11,30,08,19,38.60
2020,11,30,08,20,43.50
2020,11,30,08,21,38.60
2020,11,30,08,22,46.70
2020,11,30,08,23,37.00
2020,11,30,08,24,53.10
2020,11,30,08,25,59.50
2020,11,30,08,26,46.70
2020,11,30,08,27,51.50
2020,11,30,08,28,41.80
2020,11,30,08,29,46.70
2020,11,30,08,30,41.80
2020,11,30,08,31,64.40
2020,11,30,08,32,38.60
2020,11,30,08,33,46.70
2020,11,30,08,34,49.90
2020,11,30,08,35,40.20
2020,11,30,08,36,43.50
2020,11,30,08,37,56.30
2020,11,30,08,38,46.70
2020,11,30,08,39,67.60
2020,11,30,08,40,33.80
2020,11,30,08,41,45.10
2020,11,30,08,42,38.60
2020,11,30,08,43,51.50
2020,11,30,08,44,43.50
2020,11,30,08,45,45.10
2020,11,30,08,46,37.00
2020,11,30,08,47,29.00
2020,11,30,08,48,49.90
2020,11,30,08,49,40.20
2020,11,30,08,50,48.30
2020,11,30,08,51,46.70
2020,11,30,08,52,38.60
2020,11,30,08,53,61.20
2020,11,30,08,54,48.30
2020,11,30,08,55,57.90
2020,11,30,08,56,54.70
2020,11,30,08,57,53.10
2020,11,30,08,58,57.90
2020,11,30,08,59,59.50
2020,11,30,09,00,41.80
2020,11,30,09,01,74.00
2020,11,30,09,02,61.20
2020,11,30,09,03,46.70
2020,11,30,09,04,40.20
2020,11,30,09,05,45.10
2020,11,30,09,06,54.70
2020,11,30,09,07,37.00
2020,11,30,09,08,38.60
2020,11,30,09,09,40.20
2020,11,30,09,10,40.20
2020,11,30,09,11,45.10
2020,11,30,09,12,41.80
2020,11,30,09,13,38.60
2020,11,30,09,14,35.40
2020,11,30,09,15,37.00
2020,11,30,09,16,43.50
2020,11,30,09,17,41.80
2020,11,30,09,18,33.80
2020,11,30,09,19,48.30
2020,11,30,09,20,30.60
2020,11,30,09,21,51.50
2020,11,30,09,22,41.80
2020,11,30,09,23,20.90
2020,11,30,09,24,29.00
2020,11,30,09,25,27.40
2020,11,30,09,26,41.80
2020,11,30,09,27,25.70
2020,11,30,09,28,33.80
2020,11,30,09,29,32.20
2020,11,30,09,30,27.40
2020,11,30,09,31,40.20
2020,11,30,09,32,37.00
2020,11,30,09,33,30.60
2020,11,30,09,34,27.40
2020,11,30,09,35,25.70
2020,11,30,09,36,22.50
2020,11,30,09,37,30.60
2020,11,30,09,38,33.80
2020,11,30,09,39,22.50
2020,11,30,09,40,25.70
2020,11,30,09,41,30.60
2020,11,30,09,42,27.40
2020,11,30,09,43,24.20
2020,11,30,09,44,20.90
2020,11,30,09,45,32.20
2020,11,30,09,46,22.50
2020,11,30,09,47,30.60
2020,11,30,09,48,19.30
2020,11,30,09,49,17.70
2020,11,30,09,50,14.50
2020,11,30,09,51,11.30
2020,11,30,09,52,14.50
2020,11,30,09,53,19.30
2020,11,30,09,54,14.50
2020,11,30,09,55,12.90
2020,11,30,09,56,11.30
2020,11,30,09,57,17.70
2020,11,30,09,58,24.20
2020,11,30,09,59,16.10
2020,11,30,10,00,24.20
2020,11,30,10,01,27.40
2020,11,30,10,02,22.50
2020,11,30,10,03,25.70
2020,11,30,10,04,22.50
2020,11,30,10,05,20.90
2020,11,30,10,06,20.90
2020,11,30,10,07,37.00
2020,11,30,10,08,37.00
2020,11,30,10,09,24.20
2020,11,30,10,10,29.00
2020,11,30,10,11,30.60
2020,11,30,10,12,29.00
2020,11,30,10,13,22.50
2020,11,30,10,14,20.90
2020,11,30,10,15,17.70
2020,11,30,10,16,29.00
2020,11,30,10,17,24.20
2020,11,30,10,18,20.90
2020,11,30,10,19,29.00
2020,11,30,10,20,40.20
2020,11,30,10,21,35.40
2020,11,30,10,22,37.00
2020,11,30,10,23,20.90
2020,11,30,10,24,25.70
2020,11,30,10,25,30.60
2020,11,30,10,26,25.70
2020,11,30,10,27,29.00
2020,11,30,10,28,25.70
2020,11,30,10,29,32.20
2020,11,30,10,30,30.60
2020,11,30,10,31,30.60
2020,11,30,10,32,27.40
2020,11,30,10,33,32.20
2020,11,30,10,34,25.70
2020,11,30,10,35,33.80
2020,11,30,10,36,30.60
2020,11,30,10,37,37.00
2020,11,30,10,38,29.00
2020,11,30,10,39,32.20
2020,11,30,10,40,19.30
2020,11,30,10,41,32.20
2020,11,30,10,42,35.40
2020,11,30,10,43,37.00
2020,11,30,10,44,35.40
2020,11,30,10,45,35.40
2020,11,30,10,46,24.20
2020,11,30,10,47,29.00
2020,11,30,10,48,38.60
2020,11,30,10,49,30.60
2020,11,30,10,50,32.20
2020,11,30,10,51,35.40
2020,11,30,10,52,30.60
2020,11,30,10,53,37.00
2020,11,30,10,54,30.60
2020,11,30,10,55,25.70
2020,11,30,10,56,35.40
2020,11,30,10,57,27.40
2020,11,30,10,58,22.50
2020,11,30,10,59,22.50
2020,11,30,11,00,25.70
2020,11,30,11,01,25.70
2020,11,30,11,02,33.80
2020,11,30,11,03,33.80
2020,11,30,11,04,40.20
2020,11,30,11,05,43.50
2020,11,30,11,06,30.60
2020,11,30,11,07,27.40
2020,11,30,11,08,30.60
2020,11,30,11,09,35.40
2020,11,30,11,10,27.40
2020,11,30,11,11,27.40
2020,11,30,11,12,24.20
2020,11,30,11,13,32.20
2020,11,30,11,14,32.20
2020,11,30,11,15,32.20
2020,11,30,11,16,35.40
2020,11,30,11,17,35.40
2020,11,30,11,18,29.00
2020,11,30,11,19,38.60
2020,11,30,11,20,27.40
2020,11,30,11,21,24.20
2020,11,30,11,22,30.60
2020,11,30,11,23,30.60
2020,11,30,11,24,32.20
2020,11,30,11,25,32.20
2020,11,30,11,26,30.60
2020,11,30,11,27,24.20
2020,11,30,11,28,32.20
2020,11,30,11,29,43.50
2020,11,30,11,30,33.80
2020,11,30,11,31,32.20
2020,11,30,11,32,32.20
2020,11,30,11,33,33.80
2020,11,30,11,34,40.20
2020,11,30,11,35,30.60
2020,11,30,11,36,29.00
2020,11,30,11,37,30.60
2020,11,30,11,38,20.90
2020,11,30,11,39,27.40
2020,11,30,11,40,32.20
2020,11,30,11,41,30.60
2020,11,30,11,42,32.20
2020,11,30,11,43,33.80
2020,11,30,11,44,32.20
2020,11,30,11,45,29.00
2020,11,30,11,46,29.00
2020,11,30,11,47,22.50
2020,11,30,11,48,25.70
2020,11,30,11,49,22.50
2020,11,30,11,50,25.70
2020,11,30,11,51,22.50
2020,11,30,11,52,20.90
2020,11,30,11,53,17.70
2020,11,30,11,54,25.70
2020,11,30,11,55,22.50
2020,11,30,11,56,37.00
2020,11,30,11,57,25.70
2020,11,30,11,58,33.80
2020,11,30,11,59,27.40
2020,11,30,12,00,32.20
2020,11,30,12,01,17.70
2020,11,30,12,02,22.50
2020,11,30,12,03,24.20
2020,11,30,12,04,24.20
2020,11,30,12,05,17.70
2020,11,30,12,06,25.70
2020,11,30,12,07,27.40
2020,11,30,12,08,33.80
2020,11,30,12,09,24.20
2020,11,30,12,10,25.70
2020,11,30,12,11,22.50
2020,11,30,12,12,33.80
2020,11,30,12,13,14.50
2020,11,30,12,14,27.40
2020,11,30,12,15,32.20
2020,11,30,12,16,32.20
2020,11,30,12,17,27.40
2020,11,30,12,18,27.40
2020,11,30,12,19,33.80
2020,11,30,12,20,29.00
2020,11,30,12,21,22.50
2020,11,30,12,22,27.40
2020,11,30,12,23,27.40
2020,11,30,12,24,24.20
2020,11,30,12,25,24.20
2020,11,30,12,26,33.80
2020,11,30,12,27,35.40
2020,11,30,12,28,41.80
2020,11,30,12,29,32.20
2020,11,30,12,30,27.40
2020,11,30,12,31,29.00
2020,11,30,12,32,29.00
2020,11,30,12,33,22.50
2020,11,30,12,34,17.70
2020,11,30,12,35,19.30
2020,11,30,12,36,25.70
2020,11,30,12,37,16.10
2020,11,30,12,38,32.20
2020,11,30,12,39,24.20
2020,11,30,12,40,20.90
2020,11,30,12,41,25.70
2020,11,30,12,42,27.40
2020,11,30,12,43,25.70
2020,11,30,12,44,14.50
2020,11,30,12,45,22.50
2020,11,30,12,46,24.20
2020,11,30,12,47,20.90
2020,11,30,12,48,25.70
2020,11,30,12,49,25.70
2020,11,30,12,50,29.00
2020,11,30,12,51,25.70
2020,11,30,12,52,27.40
2020,11,30,12,53,20.90
2020,11,30,12,54,22.50
2020,11,30,12,55,22.50
2020,11,30,12,56,19.30
2020,11,30,12,57,16.10
2020,11,30,12,58,22.50
2020,11,30,12,59,27.40
2020,11,30,13,00,30.60
2020,11,30,13,01,24.20
2020,11,30,13,02,33.80
2020,11,30,13,03,19.30
2020,11,30,13,04,22.50
2020,11,30,13,05,29.00
2020,11,30,13,06,19.30
2020,11,30,13,07,22.50
2020,11,30,13,08,19.30
2020,11,30,13,09,19.30
2020,11,30,13,10,25.70
2020,11,30,13,11,38.60
2020,11,30,13,12,30.60
2020,11,30,13,13,22.50
2020,11,30,13,14,20.90
2020,11,30,13,15,16.10
2020,11,30,13,16,22.50
2020,11,30,13,17,22.50
2020,11,30,13,18,27.40
2020,11,30,13,19,22.50
2020,11,30,13,20,19.30
2020,11,30,13,21,19.30
2020,11,30,13,22,25.70
2020,11,30,13,23,37.00
2020,11,30,13,24,25.70
2020,11,30,13,25,16.10
2020,11,30,13,26,22.50
2020,11,30,13,27,29.00
2020,11,30,13,28,27.40
2020,11,30,13,29,27.40
2020,11,30,13,30,19.30
2020,11,30,13,31,35.40
2020,11,30,13,32,48.30
2020,11,30,13,33,33.80
2020,11,30,13,34,30.60
2020,11,30,13,35,25.70
2020,11,30,13,36,32.20
2020,11,30,13,37,27.40
2020,11,30,13,38,32.20
2020,11,30,13,39,25.70
2020,11,30,13,40,32.20
2020,11,30,13,41,37.00
2020,11,30,13,42,37.00
2020,11,30,13,43,25.70
2020,11,30,13,44,30.60
2020,11,30,13,45,33.80
2020,11,30,13,46,37.00
2020,11,30,13,47,35.40
2020,11,30,13,48,24.20
2020,11,30,13,49,29.00
2020,11,30,13,50,33.80
2020,11,30,13,51,35.40
2020,11,30,13,52,41.80
2020,11,30,13,53,33.80
2020,11,30,13,54,29.00
2020,11,30,13,55,32.20
2020,11,30,13,56,25.70
2020,11,30,13,57,32.20
2020,11,30,13,58,40.20
2020,11,30,13,59,33.80
2020,11,30,14,00,22.50
2020,11,30,14,01,32.20
2020,11,30,14,02,30.60
2020,11,30,14,03,25.70
2020,11,30,14,04,25.70
2020,11,30,14,05,30.60
2020,11,30,14,06,33.80
2020,11,30,14,07,29.00
2020,11,30,14,08,37.00
2020,11,30,14,09,30.60
2020,11,30,14,10,32.20
2020,11,30,14,11,29.00
2020,11,30,14,12,32.20
2020,11,30,14,13,38.60
2020,11,30,14,14,29.00
2020,11,30,14,15,30.60
2020,11,30,14,16,32.20
2020,11,30,14,17,32.20
2020,11,30,14,18,27.40
2020,11,30,14,19,27.40
2020,11,30,14,20,24.20
2020,11,30,14,21,24.20
2020,11,30,14,22,20.90
2020,11,30,14,23,20.90
2020,11,30,14,24,20.90
2020,11,30,14,25,33.80
2020,11,30,14,26,24.20
2020,11,30,14,27,19.30
2020,11,30,14,28,29.00
2020,11,30,14,29,22.50
2020,11,30,14,30,16.10
2020,11,30,14,31,22.50
2020,11,30,14,32,24.20
2020,11,30,14,33,33.80
2020,11,30,14,34,27.40
2020,11,30,14,35,33.80
2020,11,30,14,36,24.20
2020,11,30,14,37,25.70
2020,11,30,14,38,30.60
2020,11,30,14,39,19.30
2020,11,30,14,40,25.70
2020,11,30,14,41,32.20
2020,11,30,14,42,20.90
2020,11,30,14,43,27.40
2020,11,30,14,44,27.40
2020,11,30,14,45,32.20
2020,11,30,14,46,24.20
2020,11,30,14,47,30.60
2020,11,30,14,48,30.60
2020,11,30,14,49,29.00
2020,11,30,14,50,29.00
2020,11,30,14,51,20.90
2020,11,30,14,52,27.40
2020,11,30,14,53,25.70
2020,11,30,14,54,29.00
2020,11,30,14,55,29.00
2020,11,30,14,56,25.70
2020,11,30,14,57,24.20
2020,11,30,14,58,24.20
2020,11,30,14,59,20.90
2020,11,30,15,00,20.90
2020,11,30,15,01,19.30
2020,11,30,15,02,16.10
2020,11,30,15,03,17.70
2020,11,30,15,04,20.90
2020,11,30,15,05,22.50
2020,11,30,15,06,16.10
2020,11,30,15,07,20.90
2020,11,30,15,08,22.50
2020,11,30,15,09,19.30
2020,11,30,15,10,16.10
2020,11,30,15,11,16.10
2020,11,30,15,12,12.90
2020,11,30,15,13,20.90
2020,11,30,15,14,17.70
2020,11,30,15,15,17.70
2020,11,30,15,16,17.70
2020,11,30,15,17,20.90
2020,11,30,15,18,17.70
2020,11,30,15,19,19.30
2020,11,30,15,20,27.40
2020,11,30,15,21,14.50
2020,11,30,15,22,14.50
2020,11,30,15,23,12.90
2020,11,30,15,24,8.10
2020,11,30,15,25,14.50
2020,11,30,15,26,11.30
2020,11,30,15,27,12.90
2020,11,30,15,28,19.30
2020,11,30,15,29,19.30
2020,11,30,15,30,22.50
2020,11,30,15,31,20.90
2020,11,30,15,32,22.50
2020,11,30,15,33,14.50
2020,11,30,15,34,17.70
2020,11,30,15,35,25.70
2020,11,30,15,36,22.50
2020,11,30,15,37,24.20
2020,11,30,15,38,29.00
2020,11,30,15,39,33.80
2020,11,30,15,40,20.90
2020,11,30,15,41,19.30
2020,11,30,15,42,12.90
2020,11,30,15,43,14.50
2020,11,30,15,44,20.90
2020,11,30,15,45,22.50
2020,11,30,15,46,20.90
2020,11,30,15,47,19.30
2020,11,30,15,48,14.50
2020,11,30,15,49,22.50
2020,11,30,15,50,22.50
2020,11,30,15,51,25.70
2020,11,30,15,52,24.20
2020,11,30,15,53,14.50
2020,11,30,15,54,20.90
2020,11,30,15,55,27.40
2020,11,30,15,56,27.40
2020,11,30,15,57,24.20
2020,11,30,15,58,32.20
2020,11,30,15,59,20.90
2020,11,30,16,00,38.60
2020,11,30,16,01,32.20
2020,11,30,16,02,29.00
2020,11,30,16,03,14.50
2020,11,30,16,04,12.90
2020,11,30,16,05,17.70
2020,11,30,16,06,12.90
2020,11,30,16,07,19.30
2020,11,30,16,08,29.00
2020,11,30,16,09,17.70
2020,11,30,16,10,16.10
2020,11,30,16,11,22.50
2020,11,30,16,12,25.70
2020,11,30,16,13,20.90
2020,11,30,16,14,22.50
2020,11,30,16,15,27.40
2020,11,30,16,16,22.50
2020,11,30,16,17,20.90
2020,11,30,16,18,29.00
2020,11,30,16,19,20.90
2020,11,30,16,20,25.70
2020,11,30,16,21,32.20
2020,11,30,16,22,29.00
2020,11,30,16,23,32.20
2020,11,30,16,24,29.00
2020,11,30,16,25,32.20
2020,11,30,16,26,33.80
2020,11,30,16,27,24.20
2020,11,30,16,28,35.40
2020,11,30,16,29,24.20
2020,11,30,16,30,29.00
2020,11,30,16,31,33.80
2020,11,30,16,32,22.50
2020,11,30,16,33,30.60
2020,11,30,16,34,27.40
2020,11,30,16,35,25.70
2020,11,30,16,36,25.70
2020,11,30,16,37,25.70
2020,11,30,16,38,32.20
2020,11,30,16,39,30.60
2020,11,30,16,40,19.30
2020,11,30,16,41,24.20
2020,11,30,16,42,27.40
2020,11,30,16,43,29.00
2020,11,30,16,44,29.00
2020,11,30,16,45,20.90
2020,11,30,16,46,24.20
2020,11,30,16,47,27.40
2020,11,30,16,48,25.70
2020,11,30,16,49,30.60
2020,11,30,16,50,27.40
2020,11,30,16,51,22.50
2020,11,30,16,52,22.50
2020,11,30,16,53,30.60
2020,11,30,16,54,22.50
2020,11,30,16,55,24.20
2020,11,30,16,56,24.20
2020,11,30,16,57,20.90
2020,11,30,16,58,20.90
2020,11,30,16,59,24.20
2020,11,30,17,00,22.50
2020,11,30,17,01,25.70
2020,11,30,17,02,22.50
2020,11,30,17,03,24.20
2020,11,30,17,04,33.80
2020,11,30,17,05,22.50
2020,11,30,17,06,19.30
2020,11,30,17,07,20.90
2020,11,30,17,08,30.60
2020,11,30,17,09,25.70
2020,11,30,17,10,30.60
2020,11,30,17,11,27.40
2020,11,30,17,12,20.90
2020,11,30,17,13,20.90
2020,11,30,17,14,17.70
2020,11,30,17,15,14.50
2020,11,30,17,16,33.80
2020,11,30,17,17,29.00
2020,11,30,17,18,22.50
2020,11,30,17,19,16.10
2020,11,30,17,20,24.20
2020,11,30,17,21,20.90
2020,11,30,17,22,19.30
2020,11,30,17,23,17.70
2020,11,30,17,24,24.20
2020,11,30,17,25,22.50
2020,11,30,17,26,32.20
2020,11,30,17,27,24.20
2020,11,30,17,28,24.20
2020,11,30,17,29,20.90
2020,11,30,17,30,12.90
2020,11,30,17,31,20.90
2020,11,30,17,32,19.30
2020,11,30,17,33,22.50
2020,11,30,17,34,25.70
2020,11,30,17,35,20.90
2020,11,30,17,36,20.90
2020,11,30,17,37,22.50
2020,11,30,17,38,17.70
2020,11,30,17,39,17.70
2020,11,30,17,40,22.50
2020,11,30,17,41,20.90
2020,11,30,17,42,14.50
2020,11,30,17,43,17.70
2020,11,30,17,44,12.90
2020,11,30,17,45,22.50
2020,11,30,17,46,16.10
2020,11,30,17,47,17.70
2020,11,30,17,48,14.50
2020,11,30,17,49,12.90
2020,11,30,17,50,14.50
2020,11,30,17,51,12.90
2020,11,30,17,52,19.30
2020,11,30,17,53,19.30
2020,11,30,17,54,19.30
2020,11,30,17,55,19.30
2020,11,30,17,56,14.50
2020,11,30,17,57,12.90
2020,11,30,17,58,12.90
2020,11,30,17,59,14.50
2020,11,30,18,00,9.60
2020,11,30,18,01,12.90
2020,11,30,18,02,9.60
2020,11,30,18,03,12.90
2020,11,30,18,04,14.50
2020,11,30,18,05,14.50
2020,11,30,18,06,9.60
2020,11,30,18,07,12.90
2020,11,30,18,08,14.50
2020,11,30,18,09,14.50
2020,11,30,18,10,9.60